Newcastle Airport, United Kingdom

6:38 AM BST on April 28, 2017 (GMT +0100)
Newcastle Airport

Weather History for EGNT - November, 2013

Change the Weather History Date:

Sunday, November 3, 2013

  Actual Average Record
Temperature  
Mean Temperature 40 °F -  
Max Temperature 48 °F 46 °F 60 °F (2011)
Min Temperature 33 °F 37 °F 32 °F (2012)
Degree Days  
Heating Degree Days 24    
Moisture  
Dew Point 38 °F    
Average Humidity 83    
Maximum Humidity 100    
Minimum Humidity 71    
Precipitation  
Precipitation 0.00 in - - ()
Sea Level Pressure  
Sea Level Pressure 29.17 in    
Wind  
Wind Speed 21 mph ()    
Max Wind Speed 32 mph    
Max Gust Speed 46 mph    
Visibility 6.2 miles    
Events Rain    
Averages and records for this station are not official NWS values.
T = Trace of Precipitation, MM = Missing Value Source: Averaged Metar Reports

Daily Weather History Graph

Daily Weather History Graph

Search for Another Location

Airport or City:

Trip Planner

Search our weather history database for the weather conditions in past years. The results will help you decide how hot, cold, wet, or windy it might be!

Date:

Astronomy

Nov. 03, 2013 Rise Set
Actual Time 7:14 AM GMT 4:25 PM GMT
Civil Twilight 6:35 AM GMT 5:03 PM GMT
Nautical Twilight 5:52 AM GMT 5:47 PM GMT
Astronomical Twilight 5:10 AM GMT 6:29 PM GMT
Moon 7:03 AM GMT (11/3) 4:25 PM GMT (11/3)
Length of Visible Light 10h 28m
Length of Day
9h 10m
Waning Crescent, 0% of the Moon is Illuminated
Nov 3
Waning Crescent
Nov 3
New
Nov 10
First Quarter
Nov 17
Full
Nov 25
Last Quarter

Hourly Weather History & Observations

Time (GMT) Temp. Windchill Dew Point Humidity Pressure Visibility Wind Dir Wind Speed Gust Speed Precip Events Conditions
12:20 AM 44.6 °F 36.4 °F 41.0 °F 87% 28.94 in 6.2 mi West 20.7 mph - N/A   Scattered Clouds
12:50 AM 44.6 °F 36.6 °F 41.0 °F 87% 28.94 in 6.2 mi West 19.6 mph - N/A   Scattered Clouds
1:20 AM 42.8 °F 32.1 °F 39.2 °F 87% 28.94 in 6.2 mi West 31.1 mph - N/A   Scattered Clouds
1:50 AM 44.6 °F 35.1 °F 39.2 °F 81% 28.97 in 6.2 mi West 27.6 mph - N/A   Scattered Clouds
2:20 AM 44.6 °F 34.7 °F 39.2 °F 81% 28.97 in 6.2 mi West 29.9 mph - N/A   Scattered Clouds
2:50 AM 44.6 °F 34.4 °F 39.2 °F 81% 28.97 in 6.2 mi West 32.2 mph 43.7 mph N/A Rain Light Rain Showers
3:20 AM 44.6 °F 34.9 °F 39.2 °F 81% 29.00 in 6.2 mi West 28.8 mph - N/A Rain Light Rain
3:50 AM 42.8 °F 32.1 °F 41.0 °F 93% 29.03 in 6.2 mi West 31.1 mph 46.0 mph N/A Rain Light Rain
4:50 AM 44.6 °F 35.3 °F 39.2 °F 81% 29.06 in 6.2 mi West 26.5 mph - N/A   Scattered Clouds
5:20 AM 44.6 °F 35.1 °F 39.2 °F 81% 29.06 in 6.2 mi West 27.6 mph - N/A   Partly Cloudy
5:50 AM 44.6 °F 34.7 °F 39.2 °F 81% 29.06 in 6.2 mi West 29.9 mph 44.9 mph N/A   Partly Cloudy
6:20 AM 44.6 °F 35.1 °F 39.2 °F 81% 29.09 in 6.2 mi West 27.6 mph - N/A   Partly Cloudy
6:50 AM 44.6 °F 34.4 °F 39.2 °F 81% 29.09 in 6.2 mi West 32.2 mph - N/A   Partly Cloudy
7:20 AM 42.8 °F 32.5 °F 39.2 °F 87% 29.12 in 6.2 mi West 28.8 mph - N/A   Partly Cloudy
7:50 AM 42.8 °F 32.7 °F 39.2 °F 87% 29.15 in 6.2 mi West 27.6 mph - N/A   Partly Cloudy
8:20 AM 42.8 °F 32.5 °F 39.2 °F 87% 29.15 in 6.2 mi West 28.8 mph - N/A   Partly Cloudy
8:50 AM 44.6 °F 34.9 °F 39.2 °F 81% 29.18 in 6.2 mi West 28.8 mph - N/A   Partly Cloudy
9:20 AM 44.6 °F 34.9 °F 39.2 °F 81% 29.18 in 6.2 mi West 28.8 mph 42.6 mph N/A   Partly Cloudy
10:20 AM 46.4 °F 37.2 °F 39.2 °F 76% 29.21 in 6.2 mi West 29.9 mph 41.4 mph N/A   Partly Cloudy
10:50 AM 46.4 °F 37.2 °F 39.2 °F 76% 29.21 in 6.2 mi West 29.9 mph - N/A   Partly Cloudy
11:20 AM 46.4 °F 37.4 °F 39.2 °F 76% 29.21 in 6.2 mi West 28.8 mph 40.3 mph N/A   Partly Cloudy
11:50 AM 48.2 °F - 39.2 °F 71% 29.24 in 6.2 mi West 28.8 mph - N/A   Partly Cloudy
12:20 PM 48.2 °F - 39.2 °F 71% 29.24 in 6.2 mi West 26.5 mph - N/A   Partly Cloudy
12:50 PM 48.2 °F - 39.2 °F 71% 29.24 in 6.2 mi West 27.6 mph 39.1 mph N/A   Partly Cloudy
1:20 PM 48.2 °F - 39.2 °F 71% 29.24 in 6.2 mi West 26.5 mph - N/A   Partly Cloudy
1:50 PM 48.2 °F - 39.2 °F 71% 29.27 in 6.2 mi West 26.5 mph - N/A   Partly Cloudy
2:20 PM 48.2 °F - 39.2 °F 71% 29.27 in 6.2 mi West 23.0 mph - N/A   Partly Cloudy
2:50 PM 46.4 °F 39.0 °F 39.2 °F 76% 29.27 in 6.2 mi WSW 19.6 mph - N/A   Partly Cloudy
3:20 PM 46.4 °F 39.5 °F 39.2 °F 76% 29.27 in 6.2 mi West 17.3 mph - N/A   Partly Cloudy
3:50 PM 44.6 °F 36.6 °F 37.4 °F 76% 29.27 in 6.2 mi West 19.6 mph - N/A   Partly Cloudy
4:20 PM 44.6 °F 36.9 °F 37.4 °F 76% 29.30 in 6.2 mi WSW 18.4 mph - N/A   Partly Cloudy
4:50 PM 42.8 °F 34.5 °F 37.4 °F 81% 29.27 in 6.2 mi West 18.4 mph - N/A   Partly Cloudy
5:20 PM 42.8 °F 35.8 °F 39.2 °F 87% 29.27 in 6.2 mi WSW 13.8 mph - N/A   Partly Cloudy
5:50 PM 41.0 °F 33.9 °F 37.4 °F 87% 29.27 in 6.2 mi WSW 12.7 mph - N/A   Partly Cloudy
6:20 PM 41.0 °F 34.7 °F 37.4 °F 87% 29.30 in - WSW 10.4 mph - N/A   Clear
6:50 PM 41.0 °F 35.8 °F 35.6 °F 81% 29.30 in - WSW 8.1 mph - N/A   Clear
7:20 PM 39.2 °F 35.0 °F 35.6 °F 87% 29.30 in - West 5.8 mph - N/A   Clear
7:50 PM 39.2 °F 31.6 °F 35.6 °F 87% 29.27 in - West 12.7 mph - N/A   Clear
8:20 PM 39.2 °F 33.6 °F 35.6 °F 87% 29.27 in - WSW 8.1 mph - N/A   Clear
8:50 PM 37.4 °F 32.1 °F 35.6 °F 93% 29.27 in - WSW 6.9 mph - N/A   Clear
9:20 PM 39.2 °F 33.0 °F 35.6 °F 87% 29.24 in - WSW 9.2 mph - N/A   Clear
9:50 PM 37.4 °F 30.3 °F 35.6 °F 93% 29.24 in - WSW 10.4 mph - N/A   Clear
10:20 PM 35.6 °F 32.8 °F 33.8 °F 93% 29.24 in - West 3.5 mph - N/A   Clear
10:50 PM 35.6 °F - 33.8 °F 93% 29.24 in - Variable 2.3 mph - N/A   Clear
11:20 PM 33.8 °F 30.8 °F 33.8 °F 100% 29.21 in - Variable 3.5 mph - N/A   Clear
11:50 PM 35.6 °F 29.9 °F 35.6 °F 100% 29.21 in - SW 6.9 mph - N/A   Clear